C31FR-13 Weather Reports


Display with metric or nautical units.
time (UTC)temp
F
wind
direction
speed
MPH
gust
MPH
rain 1hr
in
rain 24hr
in
rain mn
in
humidity
%
barometer
mb
20260505121602 58 0.0 0.0 0.00 0.00 0.00 42 1010.0
20260505121101 58 0.0 0.0 0.00 0.00 0.00 41 1010.1
20260505120603 58 0.0 0.0 0.00 0.00 0.00 42 1010.1
20260505120104 58 0.0 0.0 0.00 0.00 0.00 40 1010.1
20260505115602 58 0.0 0.0 0.00 0.00 0.00 40 1010.2
20260505115102 58 0.0 0.0 0.00 0.00 0.00 41 1010.4
20260505114602 58 0.0 0.0 0.00 0.00 0.00 42 1010.2
20260505114103 58 0.0 0.0 0.00 0.00 0.00 42 1010.3
20260505113603 58 0.0 0.0 0.00 0.00 0.00 42 1010.4
20260505113103 58 0.0 0.0 0.00 0.00 0.00 43 1010.4
20260505112603 58 0.0 0.0 0.00 0.00 0.00 43 1010.4
20260505111602 57 0.0 0.0 0.00 0.00 0.00 45 1010.6
20260505111102 57 0.0 0.0 0.00 0.00 0.00 45 1010.7
20260505110602 57 0.0 0.0 0.00 0.00 0.00 44 1010.7
20260505102102 56 0.0 0.0 0.00 0.00 0.00 49 1011.2
20260505101603 56 0.0 0.0 0.00 0.00 0.00 51 1011.1
20260505101102 57 0.0 0.0 0.00 0.00 0.00 50 1011.1
20260505100603 57 0.0 0.0 0.00 0.00 0.00 50 1011.2
20260505095603 56 0.0 0.0 0.00 0.00 0.00 52 1011.3
20260505095103 56 0.0 0.0 0.00 0.00 0.00 57 1011.4
20260505094102 55 0.0 0.0 0.00 0.00 0.00 68 1011.5
20260505093602 55 0.0 0.0 0.00 0.00 0.00 67 1011.6
20260505093103 54 0.0 0.0 0.00 0.00 0.00 66 1011.8
20260505092603 55 0.0 0.0 0.00 0.00 0.00 68 1011.8
20260505092104 55 0.0 0.0 0.00 0.00 0.00 69 1011.8
20260505090602 54 0.0 0.0 0.00 0.00 0.00 73 1012.0
20260505085602 53 0.0 0.0 0.00 0.00 0.00 74 1012.1
20260505085102 53 0.0 0.0 0.00 0.00 0.00 72 1012.2
20260505084603 52 0.0 0.0 0.00 0.00 0.00 73 1012.3
20260505084102 52 0.0 0.0 0.00 0.00 0.00 72 1012.3
20260505083603 52 0.0 0.0 0.00 0.00 0.00 71 1012.4
20260505083102 52 0.0 0.0 0.00 0.00 0.00 73 1012.5
20260505082601 50 0.0 0.0 0.00 0.00 0.00 76 1012.5
20260505082103 50 0.0 0.0 0.00 0.00 0.00 76 1012.5
20260505081602 50 0.0 0.0 0.00 0.00 0.00 76 1012.6
20260505081102 49 0.0 0.0 0.00 0.00 0.00 78 1012.6
20260505080603 49 0.0 0.0 0.00 0.00 0.00 79 1012.6
20260505080103 50 0.0 0.0 0.00 0.00 0.00 77 1012.6
20260505075602 50 0.0 0.0 0.00 0.00 0.00 79 1012.5
20260505075102 50 0.0 0.0 0.00 0.00 0.00 80 1012.5
20260505074603 50 0.0 0.0 0.00 0.00 0.00 80 1012.5
20260505074102 50 0.0 0.0 0.00 0.00 0.00 80 1012.5
20260505073102 51 0.0 0.0 0.00 0.00 0.00 71 1012.5
20260505072103 51 0.0 0.0 0.00 0.00 0.00 78 1012.5
20260505071603 51 0.0 0.0 0.00 0.00 0.00 80 1012.5
20260505071103 51 0.0 0.0 0.00 0.00 0.00 79 1012.6
20260505070603 50 0.0 0.0 0.00 0.00 0.00 86 1012.6
20260505065603 51 0.0 0.0 0.00 0.00 0.00 83 1012.6
20260505064602 50 0.0 0.0 0.00 0.00 0.00 80 1012.7
20260505064103 49 0.0 0.0 0.00 0.00 0.00 81 1012.8
20260505063603 49 0.0 0.0 0.00 0.00 0.00 82 1012.8
20260505063103 50 0.0 0.0 0.00 0.00 0.00 81 1012.9
20260505062603 50 0.0 0.0 0.00 0.00 0.00 80 1012.9
20260505062102 50 0.0 0.0 0.00 0.00 0.00 82 1012.9
20260505061102 49 0.0 0.0 0.00 0.00 0.00 79 1012.9
20260505060603 49 0.0 0.0 0.00 0.00 0.00 80 1012.8
20260505055603 49 0.0 0.0 0.00 0.00 0.00 81 1012.8
20260505055105 49 0.0 0.0 0.00 0.00 0.00 79 1012.8
20260505054603 49 0.0 0.0 0.00 0.00 0.00 82 1012.7
20260505054102 49 0.0 0.0 0.00 0.00 0.00 81 1012.7
20260505053602 49 0.0 0.0 0.00 0.00 0.00 81 1012.7
20260505053103 49 0.0 0.0 0.00 0.00 0.00 81 1012.7
20260505052603 49 0.0 0.0 0.00 0.00 0.00 82 1012.7
20260505052103 49 0.0 0.0 0.00 0.00 0.00 85 1012.7
20260505051602 49 0.0 0.0 0.00 0.00 0.00 85 1012.7
20260505051102 48 0.0 0.0 0.00 0.00 0.00 85 1012.7
20260505050603 49 0.0 0.0 0.00 0.00 0.00 83 1012.7
20260505050103 49 0.0 0.0 0.00 0.00 0.00 84 1012.7
20260505041603 49 0.0 0.0 0.00 0.00 0.00 86 1012.6
20260505041103 49 0.0 0.0 0.00 0.00 0.00 84 1012.6
20260505040602 49 0.0 0.0 0.00 0.00 0.00 85 1012.6
20260505035602 49 0.0 0.0 0.00 0.00 0.00 86 1012.6
20260505034603 49 0.0 0.0 0.00 0.00 0.00 85 1012.8
20260505034102 49 0.0 0.0 0.00 0.00 0.00 85 1012.7
20260505033602 49 0.0 0.0 0.00 0.00 0.00 84 1012.7
20260505032603 49 0.0 0.0 0.00 0.00 0.00 84 1012.8
20260505032102 49 0.0 0.0 0.00 0.00 0.00 85 1012.8
20260505031102 49 0.0 0.0 0.00 0.00 0.00 84 1012.8
20260505030603 49 0.0 0.0 0.00 0.00 0.00 85 1012.8
20260505025602 49 0.0 0.0 0.00 0.00 0.00 84 1012.8
20260505025102 49 0.0 0.0 0.00 0.00 0.00 84 1012.7
20260505024602 50 0.0 0.0 0.00 0.00 0.00 83 1012.7
20260505024102 50 0.0 0.0 0.00 0.00 0.00 83 1012.7
20260505023603 50 0.0 0.0 0.00 0.00 0.00 85 1012.8
20260505023102 50 0.0 0.0 0.00 0.00 0.00 84 1012.7
20260505022602 50 0.0 0.0 0.00 0.00 0.00 84 1012.7
20260505021603 50 0.0 0.0 0.00 0.00 0.00 85 1012.7
20260505021102 50 0.0 0.0 0.00 0.00 0.00 85 1012.7
20260505020602 50 0.0 0.0 0.00 0.00 0.00 83 1012.7
20260505020103 49 0.0 0.0 0.00 0.00 0.00 86 1012.7
20260505015602 49 0.0 0.0 0.00 0.00 0.00 86 1012.7
20260505015102 49 0.0 0.0 0.00 0.00 0.00 86 1012.7
20260505014602 50 0.0 0.0 0.00 0.00 0.00 84 1012.6
20260505014103 50 0.0 0.0 0.00 0.00 0.00 83 1012.6
20260505013602 50 0.0 0.0 0.00 0.00 0.00 83 1012.6
20260505013102 50 0.0 0.0 0.00 0.00 0.00 85 1012.6
20260505012602 50 0.0 0.0 0.00 0.00 0.00 84 1012.6
20260505012103 50 0.0 0.0 0.00 0.00 0.00 83 1012.7
20260505011602 50 0.0 0.0 0.00 0.00 0.00 84 1012.7
20260505011102 50 0.0 0.0 0.00 0.00 0.00 86 1012.7
20260505010602 50 0.0 0.0 0.00 0.00 0.00 85 1012.8
20260505005603 51 0.0 0.0 0.00 0.00 0.00 85 1012.8
20260505005103 50 0.0 0.0 0.00 0.00 0.00 87 1012.8
20260505004603 50 0.0 0.0 0.00 0.00 0.00 87 1012.8
20260505004103 51 0.0 0.0 0.00 0.00 0.00 85 1012.9
20260505003602 50 0.0 0.0 0.00 0.00 0.00 87 1012.9
20260505003102 51 0.0 0.0 0.00 0.00 0.00 86 1013.0
20260505002602 51 0.0 0.0 0.00 0.00 0.00 85 1013.0
20260505002102 51 0.0 0.0 0.00 0.00 0.00 84 1013.0
20260505001602 51 0.0 0.0 0.00 0.00 0.00 84 1013.0
20260505001103 50 0.0 0.0 0.00 0.00 0.00 87 1013.0
20260505000603 50 0.0 0.0 0.00 0.00 0.00 86 1013.0
20260504235603 51 0.0 0.0 0.00 0.00 0.00 85 1012.9
20260504235102 50 0.0 0.0 0.00 0.00 0.00 87 1013.0
20260504234602 51 0.0 0.0 0.00 0.00 0.00 85 1012.9
20260504234103 51 0.0 0.0 0.00 0.00 0.00 86 1012.9
20260504233601 51 0.0 0.0 0.00 0.00 0.00 87 1012.9
20260504233103 50 0.0 0.0 0.00 0.00 0.00 89 1013.0
20260504232603 50 0.0 0.0 0.00 0.00 0.00 90 1013.0
20260504232103 51 0.0 0.0 0.00 0.00 0.00 88 1013.0
20260504231602 50 0.0 0.0 0.00 0.00 0.00 88 1013.1
20260504231103 51 0.0 0.0 0.00 0.00 0.00 85 1013.0
20260504230602 51 0.0 0.0 0.00 0.00 0.00 85 1013.0
20260504225603 51 0.0 0.0 0.00 0.00 0.00 86 1013.0
20260504225102 51 0.0 0.0 0.00 0.00 0.00 85 1013.0
20260504224603 50 0.0 0.0 0.00 0.00 0.00 87 1013.0
20260504224102 51 0.0 0.0 0.00 0.00 0.00 83 1012.9
20260504223603 49 0.0 0.0 0.00 0.00 0.00 86 1012.8
20260504222603 51 0.0 0.0 0.00 0.00 0.00 83 1012.6
20260504222102 51 0.0 0.0 0.00 0.00 0.00 83 1012.7
20260504221102 51 0.0 0.0 0.00 0.00 0.00 80 1012.7
20260504220602 51 0.0 0.0 0.00 0.00 0.00 78 1012.7
20260504215602 50 0.0 0.0 0.00 0.00 0.00 85 1012.6
20260504215102 51 0.0 0.0 0.00 0.00 0.00 85 1012.5
20260504214602 51 0.0 0.0 0.00 0.00 0.00 84 1012.5
20260504214103 52 0.0 0.0 0.00 0.00 0.00 81 1012.5
20260504213603 52 0.0 0.0 0.00 0.00 0.00 83 1012.6
20260504213102 51 0.0 0.0 0.00 0.00 0.00 84 1012.5
20260504212603 52 0.0 0.0 0.00 0.00 0.00 82 1012.5
20260504212103 51 0.0 0.0 0.00 0.00 0.00 84 1012.6
20260504211602 51 0.0 0.0 0.00 0.00 0.00 85 1012.6
20260504211103 51 0.0 0.0 0.00 0.00 0.00 83 1012.5
20260504210603 51 0.0 0.0 0.00 0.00 0.00 86 1012.5
20260504205603 51 0.0 0.0 0.00 0.00 0.00 87 1012.7
20260504205102 52 0.0 0.0 0.00 0.00 0.00 84 1013.0
20260504204602 52 0.0 0.0 0.00 0.00 0.00 83 1013.3
20260504204102 53 0.0 0.0 0.00 0.00 0.00 83 1013.5
20260504203103 53 0.0 0.0 0.00 0.00 0.00 87 1013.4
20260504202603 53 0.0 0.0 0.00 0.00 0.00 89 1013.2
20260504201603 53 0.0 0.0 0.00 0.00 0.00 94 1013.5
20260504201102 53 0.0 0.0 0.00 0.00 0.00 89 1013.4
20260504200602 54 0.0 0.0 0.00 0.00 0.00 93 1013.3
20260504195102 54 0.0 0.0 0.00 0.00 0.00 93 1013.1
20260504194602 53 0.0 0.0 0.00 0.00 0.00 97 1012.9
20260504193602 53 0.0 0.0 0.00 0.00 0.00 97 1012.7
20260504192602 54 0.0 0.0 0.00 0.00 0.00 97 1012.6
20260504192102 54 0.0 0.0 0.00 0.00 0.00 94 1012.5
20260504191602 54 0.0 0.0 0.00 0.00 0.00 93 1012.4
20260504191103 54 0.0 0.0 0.00 0.00 0.00 92 1012.3
20260504185603 54 0.0 0.0 0.00 0.00 0.00 87 1011.9
20260504185102 54 0.0 0.0 0.00 0.00 0.00 87 1011.7
20260504184602 55 0.0 0.0 0.00 0.00 0.00 90 1011.5
20260504184102 55 0.0 0.0 0.00 0.00 0.00 91 1011.3
20260504183602 55 0.0 0.0 0.00 0.00 0.00 87 1011.3
20260504183103 55 0.0 0.0 0.00 0.00 0.00 89 1011.2
20260504182602 55 0.0 0.0 0.00 0.00 0.00 93 1011.1
20260504182103 55 0.0 0.0 0.00 0.00 0.00 93 1011.0
20260504181603 56 0.0 0.0 0.00 0.00 0.00 91 1011.1
20260504181102 56 0.0 0.0 0.00 0.00 0.00 90 1011.2
20260504180602 56 0.0 0.0 0.00 0.00 0.00 90 1011.2
20260504175602 56 0.0 0.0 0.00 0.00 0.00 94 1011.2
20260504175102 56 0.0 0.0 0.00 0.00 0.00 93 1011.1
20260504174602 56 0.0 0.0 0.00 0.00 0.00 94 1011.0
20260504174103 57 0.0 0.0 0.00 0.00 0.00 93 1011.0
20260504173603 56 0.0 0.0 0.00 0.00 0.00 92 1011.0
20260504173103 56 0.0 0.0 0.00 0.00 0.00 94 1011.1
20260504172102 56 0.0 0.0 0.00 0.00 0.00 91 1011.1
20260504171603 56 0.0 0.0 0.00 0.00 0.00 91 1011.0
20260504171103 56 0.0 0.0 0.00 0.00 0.00 95 1010.8
20260504170602 56 0.0 0.0 0.00 0.00 0.00 99 1010.8
20260504151102 57 0.0 0.0 0.00 0.00 0.00 94 1011.7
20260504150602 56 0.0 0.0 0.00 0.00 0.00 94 1011.8
20260504141102 58 0.0 0.0 0.00 0.00 0.00 84 1011.6
20260504140602 59 0.0 0.0 0.00 0.00 0.00 82 1011.6
20260504130603 57 0.0 0.0 0.00 0.00 0.00 77 1012.7
20260504130103 58 0.0 0.0 0.00 0.00 0.00 78 1012.6